Satellite-Ground Cal/Val Region Overpasses Predictions

Prediction of Satellite NPP Overpassing Cal/Val Region: PacNW

Region Location: (Latitude: 10.00, Longitude: 139.50) to (Latitude: 22.70, Longitude: 165.60).

Table of predicted overpasses for the next 14.0 days since TLE Epoch: 10/26/2020
Interval Starting Time Starting Location Ending Time Ending Location
1 10/26/2020 03:23:43 ( 10.01, 148.79) 10/26/2020 03:27:19 ( 22.69, 145.78)
2 10/26/2020 15:55:36 ( 22.65, 146.01) 10/26/2020 15:59:11 ( 10.03, 143.01)
3 10/27/2020 03:04:40 ( 10.00, 153.55) 10/27/2020 03:08:16 ( 22.68, 150.54)
4 10/27/2020 15:36:34 ( 22.65, 150.77) 10/27/2020 15:40:09 ( 10.03, 147.77)
5 10/28/2020 02:45:39 ( 10.06, 158.30) 10/28/2020 02:49:14 ( 22.68, 155.30)
6 10/28/2020 15:17:31 ( 22.66, 155.52) 10/28/2020 15:21:06 ( 10.04, 152.53)
7 10/29/2020 02:26:36 ( 10.05, 163.06) 10/29/2020 02:30:11 ( 22.67, 160.06)
8 10/29/2020 14:58:29 ( 22.66, 160.28) 10/29/2020 15:02:04 ( 10.04, 157.29)
9 10/30/2020 02:10:15 ( 19.50, 165.60) 10/30/2020 02:11:09 ( 22.67, 164.82)
10 10/30/2020 03:49:04 ( 10.05, 142.44) 10/30/2020 03:52:35 ( 22.44, 139.50)
11 10/30/2020 14:39:27 ( 22.67, 165.04) 10/30/2020 14:43:02 ( 10.04, 162.04)
12 10/30/2020 16:20:57 ( 22.66, 139.67) 10/30/2020 16:21:08 ( 22.01, 139.50)
13 10/31/2020 03:30:01 ( 10.05, 147.20) 10/31/2020 03:33:36 ( 22.67, 144.20)
14 10/31/2020 16:01:54 ( 22.66, 144.42) 10/31/2020 16:05:29 ( 10.04, 141.43)
15 11/01/2020 03:10:59 ( 10.05, 151.96) 11/01/2020 03:14:34 ( 22.67, 148.96)
16 11/01/2020 15:42:52 ( 22.66, 149.18) 11/01/2020 15:46:27 ( 10.04, 146.19)
17 11/02/2020 02:51:56 ( 10.04, 156.72) 11/02/2020 02:55:31 ( 22.67, 153.72)
18 11/02/2020 15:23:49 ( 22.67, 153.94) 11/02/2020 15:27:24 ( 10.05, 150.94)
19 11/03/2020 02:32:54 ( 10.04, 161.48) 11/03/2020 02:36:29 ( 22.66, 158.48)
20 11/03/2020 15:04:47 ( 22.67, 158.70) 11/03/2020 15:08:22 ( 10.05, 155.70)
21 11/04/2020 02:14:38 ( 12.80, 165.60) 11/04/2020 02:17:26 ( 22.66, 163.24)
22 11/04/2020 03:55:21 ( 10.05, 140.86) 11/04/2020 03:57:00 ( 15.86, 139.51)
23 11/04/2020 14:45:44 ( 22.67, 163.46) 11/04/2020 14:49:19 ( 10.05, 160.46)
24 11/05/2020 03:36:19 ( 10.05, 145.62) 11/05/2020 03:39:54 ( 22.67, 142.62)
25 11/05/2020 14:29:49 ( 11.70, 165.60) 11/05/2020 14:30:17 ( 10.05, 165.22)
26 11/05/2020 16:08:12 ( 22.66, 142.84) 11/05/2020 16:11:47 ( 10.04, 139.84)
27 11/06/2020 03:17:16 ( 10.05, 150.37) 11/06/2020 03:20:51 ( 22.67, 147.38)
28 11/06/2020 15:49:09 ( 22.67, 147.60) 11/06/2020 15:52:44 ( 10.04, 144.60)
29 11/07/2020 02:58:14 ( 10.05, 155.13) 11/07/2020 03:01:49 ( 22.67, 152.13)
30 11/07/2020 15:30:07 ( 22.67, 152.36) 11/07/2020 15:33:42 ( 10.04, 149.36)
31 11/08/2020 02:39:12 ( 10.05, 159.89) 11/08/2020 02:42:47 ( 22.67, 156.89)
